Hlavní strana
METAR-TAF:

METAR-TAF

Letiště :

Jacksonville Municipal Airport

Jacksonville, Illinois, Spojené státy americké

zeměpisná šířka: 39-46-27N, zeměpisná délka: 090-14-19W, výška: 190 m

Aktuální stav počasí

Zpráva byla vytvořena před 26 minutami, v 01:30 UTC
Bezvětří
Teplota 5°C
Vlhkost vzduchu 81%
Tlak 1016 hPa
Viditelnost: 16.1 km
Jasno

METAR: KIJX 180130Z AUTO 00000KT 10SM CLR 05/02 A3001 RMK AO2 T00540023

Čas: 20:56 (01:56 UTC)


TAF: chybějící

Stav a předpovědi počasí z více než 4 000 letišť (zprávy METAR a TAF).

Červené a žluté tečky na mapě představují dostupné meteorologické stanice.

Když kurzor umístíte na tečku, zobrazí se název stanice.

Pak kliknutím zobrazíte stav a předpověď počasí.

Chcete-li změnit mapu, kliknutím na zelené tlačítko se znaménkem +mapu přiblížíte, kliknutím na zelené tlačítko se znaménkem – mapu oddálíte a kliknutím na zelené šipky přejdete na sousední mapy.


METAR-TAF: